Regional Weather Roundup
Issued by NWS

Home | Current Version | Previous Version | Graphics & Text | Print | Product List | Glossary On
Versions: 1 2 3 4 5 6 7 8 9 10 11 12 13 14 15 16 17 18 19 20 21 22 23 24 25 26 27 28 29 30 31 32 33 34 35 36 37 38 39 40 41 42 43 44 45 46 47 48 49 50
000
ASUS43 KFSD 310810
RWRSD

WEATHER ROUNDUP FOR SOUTH DAKOTA
NATIONAL WEATHER SERVICE SIOUX FALLS SD
300 AM CDT SUN JUL 31 2016

NOTE: "FAIR" INDICATES FEW OR NO CLOUDS BELOW 12,000 FEET WITH NO
SIGNIFICANT WEATHER AND/OR OBSTRUCTIONS TO VISIBILITY.


SDZ001>005-009-010-012>017-310900-
NORTHWEST AND NORTH CENTRAL SOUTH DAKOTA

CITY           SKY/WX    TMP DP  RH WIND       PRES   REMARKS
BUFFALO          N/A     65  58  78 SE12      29.71F
FAITH            N/A     65  61  87 S15       29.78F
MOBRIDGE       CLOUDY    70  64  81 SE12G20   29.77S
$$

SDZ012>016-024>037-041>051-057-063-072>074-310900-
SOUTHWEST AND SOUTH CENTRAL SOUTH DAKOTA

CITY           SKY/WX    TMP DP  RH WIND       PRES   REMARKS
RAPID CTY ARPT CLOUDY    69  56  62 S8        29.85F
PIERRE         CLOUDY    71  67  87 SE9       29.76F
CUSTER         CLEAR     62  51  67 E9        30.00F
ELLSWORTH AFB  CLOUDY    70  58  65 SW18      29.80
PHILIP         CLOUDY    70  60  70 S20       29.79F
PINE RIDGE     CLOUDY    67  57  70 E13       29.88F
WINNER         PTSUNNY   68  62  81 W10       29.91S
$$

SDZ004>011-016>023-039-040-310900-
NORTHEAST SOUTH DAKOTA

CITY           SKY/WX    TMP DP  RH WIND       PRES   REMARKS
ABERDEEN       CLOUDY    67  61  81 SE10      29.85F
WATERTOWN      CLOUDY    65  57  75 SE12      29.92F
BROOKINGS      PTCLDY    63  59  87 SE9       29.93F
SISSETON         N/A     60  58  92 S6        29.90S
$$

SDZ017-020-022-023-036>040-048>070-310900-
SOUTHEAST SOUTH DAKOTA

CITY           SKY/WX    TMP DP  RH WIND       PRES   REMARKS
SIOUX FALLS    CLEAR     69  61  75 SE9       29.93F
HURON          CLOUDY    71  62  73 SE12      29.86F
CHAMBERLAIN    CLOUDY    75  70  86 S17G23    29.84F
MITCHELL       CLOUDY    73  65  75 S13       29.89S
YANKTON        CLOUDY    70  63  78 E6        29.91S
$$

ABBREVIATIONS USED IN REMARKS
   TC - TEMPERATURE IN CELSIUS
  WCI - WIND CHILL INDEX
   HX - HEAT INDEX
  VSB - VISIBILITY





USA.gov is the U.S. government's official web portal to all federal, state and local government web resources and services.